Wallops Island, VA

11:07 PM EDT on October 23, 2017 (GMT -0400)
Wallops Flight Facility

Weather History for KWAL - January, 2013

Change the Weather History Date:

Friday, January 11, 2013

  Actual Average Record
Temperature  
Mean Temperature 45 °F 36 °F  
Max Temperature 57 °F 45 °F 64 °F (2000)
Min Temperature 33 °F 28 °F 7 °F (1982)
Degree Days  
Heating Degree Days 20    
Month to date heating degree days 250  
Since 1 July heating degree days 1492  
Cooling Degree Days 0    
Month to date cooling degree days 0  
Year to date cooling degree days 0  
Moisture  
Dew Point 42 °F    
Average Humidity 70    
Maximum Humidity 83    
Minimum Humidity 57    
Precipitation  
Precipitation 0.07 in 0.10 in 1.12 in (2014)
Month to date precipitation 0.20 1.08  
Year to date precipitation 0.20 1.08  
Sea Level Pressure  
Sea Level Pressure 30.25 in    
Wind  
Wind Speed 6 mph (SW)    
Max Wind Speed 15 mph    
Max Gust Speed 19 mph    
Visibility 8 miles    
Events Rain    
T = Trace of Precipitation, MM = Missing Value Source: NWS Daily Summary

Daily Weather History Graph

Daily Weather History Graph

Search for Another Location

Airport or City:

Trip Planner

Search our weather history database for the weather conditions in past years. The results will help you decide how hot, cold, wet, or windy it might be!

Date:

Astronomy

Jan. 11, 2013 Rise Set
Actual Time 7:17 AM EST 5:02 PM EST
Civil Twilight 6:48 AM EST 5:31 PM EST
Nautical Twilight 6:16 AM EST 6:04 PM EST
Astronomical Twilight 5:44 AM EST 6:35 PM EST
Moon 6:49 AM EST (1/11) 5:16 PM EST (1/11)
Length of Visible Light 10h 43m
Length of Day
9h 45m
Waning Crescent, 0% of the Moon is Illuminated
Jan 11
Waning Crescent
Jan 11
New
Jan 18
First Quarter
Jan 26
Full
Feb 3
Last Quarter

Hourly Weather History & Observations

Time (EST) Temp. Windchill Dew Point Humidity Pressure Visibility Wind Dir Wind Speed Gust Speed Precip Events Conditions
12:54 AM 39.9 °F - 30.0 °F 68% 30.50 in 10.0 mi Calm Calm - N/A   Clear
1:54 AM 37.0 °F - 28.9 °F 73% 30.49 in 10.0 mi Calm Calm - N/A   Clear
2:54 AM 35.1 °F 32.2 °F 28.0 °F 76% 30.48 in 10.0 mi NNW 3.5 mph - N/A   Clear
3:54 AM 35.1 °F 32.2 °F 28.0 °F 76% 30.45 in 10.0 mi North 3.5 mph - N/A   Clear
4:54 AM 33.1 °F 28.7 °F 27.0 °F 78% 30.44 in 10.0 mi NNW 4.6 mph - N/A   Clear
5:54 AM 36.0 °F 33.3 °F 28.0 °F 73% 30.43 in 10.0 mi North 3.5 mph - N/A   Clear
6:54 AM 35.1 °F 32.2 °F 28.0 °F 76% 30.44 in 9.0 mi NNE 3.5 mph - N/A   Clear
7:54 AM 37.9 °F 35.5 °F 30.9 °F 76% 30.43 in 7.0 mi NNW 3.5 mph - N/A   Mostly Cloudy
8:54 AM 44.1 °F 40.8 °F 37.9 °F 79% 30.40 in 5.0 mi East 5.8 mph - N/A   Haze
9:54 AM 48.0 °F - 39.0 °F 71% 30.40 in 10.0 mi Calm Calm - N/A   Overcast
10:54 AM 52.0 °F - 39.9 °F 63% 30.38 in 10.0 mi Calm Calm - N/A   Overcast
11:54 AM 51.1 °F - 39.9 °F 66% 30.33 in 10.0 mi East 5.8 mph - N/A   Overcast
12:54 PM 53.6 °F - 42.8 °F 67% 30.29 in 10.0 mi SE 6.9 mph - N/A   Mostly Cloudy
1:54 PM 51.1 °F - 44.1 °F 77% 30.26 in 6.0 mi SE 6.9 mph - 0.04 in Rain Light Rain
2:54 PM 51.1 °F - 45.0 °F 80% 30.24 in 10.0 mi SE 4.6 mph - 0.01 in   Overcast
3:52 PM 51.8 °F - 44.6 °F 76% 30.22 in 9.0 mi South 8.1 mph - 0.00 in Rain Light Rain
3:54 PM 51.1 °F - 45.0 °F 80% 30.21 in 9.0 mi South 5.8 mph - 0.00 in Rain Light Rain
4:05 PM 52.0 °F - 46.0 °F 80% 30.22 in 6.0 mi South 8.1 mph - 0.00 in   Haze
4:12 PM 52.0 °F - 46.9 °F 83% 30.22 in 8.0 mi SSW 6.9 mph - 0.00 in   Overcast
4:26 PM 53.1 °F - 46.9 °F 80% 30.21 in 10.0 mi South 6.9 mph - 0.00 in   Overcast
4:38 PM 52.0 °F - 46.9 °F 83% 30.20 in 10.0 mi SSW 9.2 mph - 0.00 in   Overcast
4:54 PM 53.1 °F - 48.0 °F 83% 30.19 in 10.0 mi South 10.4 mph - 0.00 in   Overcast
5:54 PM 53.1 °F - 48.0 °F 83% 30.17 in 10.0 mi South 8.1 mph - 0.00 in Rain Light Rain
6:24 PM 53.1 °F - 48.0 °F 83% 30.17 in 10.0 mi South 9.2 mph - 0.01 in   Overcast
6:42 PM 53.1 °F - 48.0 °F 83% 30.16 in 10.0 mi SSW 10.4 mph - 0.01 in   Overcast
6:54 PM 53.1 °F - 48.0 °F 83% 30.15 in 10.0 mi SSW 10.4 mph - 0.01 in   Overcast
7:11 PM 53.1 °F - 48.0 °F 83% 30.16 in 10.0 mi SSW 10.4 mph - N/A   Overcast
7:54 PM 53.1 °F - 46.9 °F 80% 30.13 in 10.0 mi SSW 15.0 mph - 0.01 in   Overcast
8:54 PM 53.1 °F - 46.9 °F 80% 30.11 in 10.0 mi SW 12.7 mph - N/A   Overcast
9:52 PM 55.4 °F - 48.2 °F 77% 30.10 in 10.0 mi SW 9.2 mph - 0.00 in   Overcast
9:54 PM 55.0 °F - 48.9 °F 80% 30.10 in 10.0 mi SW 9.2 mph - 0.00 in   Overcast
10:14 PM 55.9 °F - 50.0 °F 80% 30.10 in 10.0 mi WSW 5.8 mph - N/A   Overcast
10:37 PM 53.1 °F - 48.0 °F 83% 30.11 in 5.0 mi West 9.2 mph - N/A   Haze
10:54 PM 53.1 °F - 48.0 °F 83% 30.10 in 4.0 mi West 8.1 mph - N/A   Haze
10:59 PM 53.1 °F - 48.0 °F 83% 30.11 in 2.5 mi West 8.1 mph - N/A   Haze
11:04 PM 53.1 °F - 48.0 °F 83% 30.10 in 1.8 mi WNW 9.2 mph - N/A   Haze
11:27 PM 54.0 °F - 48.9 °F 83% 30.11 in 2.0 mi WNW 10.4 mph 19.6 mph N/A   Haze
11:38 PM 54.0 °F - 48.9 °F 83% 30.10 in 3.0 mi West 9.2 mph - N/A   Haze
11:54 PM 54.0 °F - 48.9 °F 83% 30.09 in 5.0 mi West 11.5 mph - N/A   Haze